Weather History for Cancun, Mexico

Change the Weather History Date:

Wednesday, March 26, 2014

  Actual Average Record
Temperature  
Mean Temperature 78 °F -  
Max Temperature 80 °F 84 °F 89 °F (2003)
Min Temperature 75 °F 67 °F 57 °F (2008)
Cooling Degree Days 12    
Growing Degree Days 28 (Base 50)    
Moisture  
Dew Point 67 °F    
Average Humidity 70    
Maximum Humidity 89    
Minimum Humidity 58    
Precipitation  
Precipitation 0.00 in - - ()
Sea Level Pressure  
Sea Level Pressure 30.07 in    
Wind  
Wind Speed 9 mph ()    
Max Wind Speed 17 mph    
Max Gust Speed 24 mph    
Visibility 6.7 miles    
Events      
Averages and records for this station are not official NWS values.
T = Trace of Precipitation, MM = Missing Value Source: Averaged Metar Reports

Daily Weather History Graph

Daily Weather History Graph

Search for Another Location

Airport:

Trip Planner

Search our weather history database for the weather conditions in past years. The results will help you decide how hot, cold, wet, or windy it might be!

Date:

Astronomy

Mar. 26, 2014 Rise Set
Actual Time 5:46 AM CST 6:00 PM CST
Civil Twilight 5:23 AM CST 6:22 PM CST
Nautical Twilight 4:58 AM CST 6:48 PM CST
Astronomical Twilight 4:32 AM CST 7:14 PM CST
Moon 2:22 AM CST (3/26) 2:07 PM CST (3/26)
Length of Visible Light 12h 58m
Length of Day
12h 14m
Waning Crescent, 21% of the Moon is Illuminated
Mar 26
Waning Crescent
Mar 30
New
Apr 7
First Quarter
Apr 15
Full
Apr 22
Last Quarter

Hourly Weather History & Observations

Time (CST) Temp. Heat Index Dew Point Humidity Pressure Visibility Wind Dir Wind Speed Gust Speed Precip Events Conditions
12:45 AM 77.0 °F - 71.6 °F 83% 30.04 in 6.0 mi East 5.8 mph - N/A   Scattered Clouds
1:44 AM 75.2 °F - 71.6 °F 89% 30.04 in 6.0 mi ENE 8.1 mph - N/A   Scattered Clouds
2:48 AM 75.2 °F - 71.6 °F 89% 29.99 in 6.0 mi NE 8.1 mph - N/A   Scattered Clouds
3:47 AM 75.2 °F - 71.6 °F 89% 30.03 in 6.0 mi NNE 12.7 mph - N/A   Scattered Clouds
4:46 AM 75.2 °F - 69.8 °F 83% 30.05 in 6.0 mi NE 11.5 mph 24.2 mph N/A   Scattered Clouds
5:46 AM 75.2 °F - 66.2 °F 73% 30.03 in 6.0 mi NE 17.3 mph - N/A   Scattered Clouds
6:45 AM 75.2 °F - 64.4 °F 69% 30.09 in 6.0 mi ENE 12.7 mph - N/A   Scattered Clouds
7:47 AM 77.0 °F - 64.4 °F 65% 30.12 in 7.0 mi NE 9.2 mph - N/A   Clear
8:43 AM 78.8 °F - 64.4 °F 61% 30.11 in 7.0 mi East 12.7 mph - N/A   Clear
9:40 AM 80.6 °F 82.3 °F 64.4 °F 58% 30.04 in 7.0 mi ENE 13.8 mph - N/A   Clear
10:42 AM 80.6 °F 82.3 °F 64.4 °F 58% 30.13 in 7.0 mi ENE 12.7 mph - N/A   Clear
11:45 AM 80.6 °F 82.3 °F 64.4 °F 58% 30.10 in 7.0 mi ENE 8.1 mph - N/A   Partly Cloudy
12:45 PM 80.6 °F 82.7 °F 66.2 °F 61% 30.10 in 7.0 mi ENE 9.2 mph - N/A   Mostly Cloudy
1:44 PM 78.8 °F - 66.2 °F 65% 30.09 in 7.0 mi East 9.2 mph - N/A   Mostly Cloudy
2:40 PM 78.8 °F - 66.2 °F 65% 30.05 in 7.0 mi East 10.4 mph - N/A   Mostly Cloudy
3:40 PM 77.0 °F - 66.2 °F 69% 30.06 in 7.0 mi East 10.4 mph - N/A   Mostly Cloudy
4:40 PM 77.0 °F - 66.2 °F 69% 30.06 in 7.0 mi ENE 6.9 mph - N/A   Mostly Cloudy
5:50 PM 77.0 °F - 64.4 °F 65% 30.05 in 7.0 mi East 6.9 mph - N/A   Mostly Cloudy
6:41 PM 77.0 °F - 66.2 °F 69% 30.09 in 7.0 mi ENE 9.2 mph - N/A   Mostly Cloudy
7:40 PM 77.0 °F - 66.2 °F 69% 30.11 in 7.0 mi ENE 8.1 mph - N/A   Mostly Cloudy
8:40 PM 77.0 °F - 66.2 °F 69% 30.09 in 7.0 mi ENE 9.2 mph - N/A   Mostly Cloudy
9:46 PM 77.0 °F - 66.2 °F 69% 30.12 in 7.0 mi East 9.2 mph - N/A   Mostly Cloudy
10:44 PM 77.0 °F - 66.2 °F 69% 30.10 in 7.0 mi ESE 9.2 mph - N/A   Mostly Cloudy
11:44 PM 77.0 °F - 66.2 °F 69% 30.06 in 7.0 mi East 9.2 mph - N/A   Mostly Cloudy